Вернуться в каталог

STARLINK-31205

АктивенСвязьVLEO
NORAD 59046·PAYLOAD·🇺🇸 United States

Запущен Feb 25, 2024 с Cape Canaveral Space Force Station

Loading…

Ближайшие Пролёты (ближайшие 24 часа)

TLE

СвежийSource: CelesTrak SupGP

Эпоха: Sep 14, 2026, 22:41 UTC

1 59046C 24038Z   26257.94562500  .00019516  00000+0  70694-3 0  2571
2 59046  43.0039  34.8797 0001423 273.2860 349.5905 15.27566186    14

Отслеживайте STARLINK-31205 в реальном времени с AllMySat

Download on the App Store